Regional Weather Roundup
Issued by NWS

Home | Current Version | Previous Version | Text Only | Print | Product List | Glossary Off
Versions: 1 2 3 4 5 6 7 8 9 10 11 12 13 14 15 16 17 18 19 20 21 22 23 24 25 26 27 28 29 30 31 32 33 34 35 36 37 38 39 40 41 42 43 44 45 46 47 48 49 50

856
ASUS45 KSLC 311710
RWRUT

UTAH REGIONAL WEATHER ROUNDUP
NATIONAL WEATHER SERVICE SALT LAKE CITY UT
1100 AM MDT WED AUG 31 2016

UTZ001>011-023>025-311800-

NORTHERN UTAH

CITY           SKY/WX    TMP DP  RH WIND       PRES   REMARKS
BRIGHAM CITY     N/A     84  28  13 SW3       30.09S
DUGWAY         MOSUNNY   90  33  13 S16G22    30.09S
HILL AFB       SUNNY     85  36  17 S10       30.12S
LOGAN          SUNNY     77  38  24 VRB5      30.10S
OGDEN          MOSUNNY   85  34  16 SE6       30.09S
PROVO AIRPORT  MOSUNNY  N/A N/A N/A SE9       30.14R
SALT LAKE CITY MOSUNNY   89  37  16 S10       30.07S
VERNAL         SUNNY     74  32  21 S5        30.23S
WENDOVER       SUNNY     79  32  18 E8        30.07S
HEBER CITY     SUNNY     73  32  21 CALM      30.19F
WEST JORDAN    MOSUNNY   83  38  20 S15       30.12R

$$

UTZ012>022-026-027-311800-

SOUTHERN/CENTRAL UTAH

CITY           SKY/WX    TMP DP  RH WIND       PRES   REMARKS
BLANDING       SUNNY     74  49  40 S9        30.38S
BRYCE CANYON   SUNNY     71  36  27 MISG      30.39S
CEDAR CITY     SUNNY     84  36  18 SW9       30.20S
DELTA          SUNNY     84  32  15 SE3       30.14S
MILFORD        SUNNY     86  33  15 S14       30.15S
MOAB/CYNLANDS  SUNNY     82  45  27 VRB5      30.17S
PRICE          SUNNY     78  35  21 S8        30.27S
ST GEORGE      SUNNY     82  45  26 W3        30.05F

$$

REGIONAL REPORTS     COLORADO/ARIZONA

CITY           SKY/WX    TMP DP  RH WIND       PRES   REMARKS
CRAIG, CO      SUNNY     78  39  24 VRB5      30.29F
GRAND JUNCTION SUNNY     78  44  29 SE7       30.21F
RIFLE          SUNNY     74  47  38 VRB3      30.27F
MONTROSE       SUNNY     76  47  35 CALM      30.29F
CORTEZ         SUNNY     74  50  42 CALM      30.31F
PAGE, AZ       SUNNY     80  39  23 CALM      30.16R
GRAND CANYON   SUNNY     76  46  34 SW6       30.33R
KINGMAN        SUNNY     92  47  21 CALM      30.06R
FLAGSTAFF      SUNNY     71  49  45 S6        30.35S

$$

REGIONAL REPORTS    NEVADA/IDAHO/WYOMING

CITY           SKY/WX    TMP DP  RH WIND       PRES   REMARKS
LAS VEGAS, NV  MOSUNNY   94  38  14 VRB3      29.91S
ELY            SUNNY     80  32  17 S17G26    30.21S
ELKO           MOSUNNY   79  30  16 SW5       30.09S
POCATELLO, ID  SUNNY     80  41  24 NW7       30.06R
BURLEY         PTSUNNY   75  47  36 N5        30.01S
EVANSTON, WY   SUNNY     76  27  16 NE5       30.31S
ROCK SPRINGS   SUNNY     74  37  26 NE6       30.31S

$$




USA.gov is the U.S. government's official web portal to all federal, state and local government web resources and services.